Find Starlink 11583

NORAD ID: 62991 Int'l Des: 2025-031 Owner: SPXS Country: US Constellation: starlink operational
LEOCIRCULAR

現在のビュー

3D地球を読み込み中...

About Starlink 11583

Starlink 11583 (NORAD 62991) is a starlink constellation satellite (v2 mini d2c) launched Feb 11, 2025 by SPXS of US. It operates in LEO, CIRCULAR orbit with a mass of 960.00 kg.

Starlink 11583について

説明を読み込み中...

次回通過

Passes for default location (London). Set your location on the main map for personalized predictions.

高度履歴

Loading altitude history...

軌道要素

1 62991U 25031L 26193.40223215 .00103991 00000-0 80121-3 0 9996
2 62991 42.9984 329.9811 0002375 272.5075 87.5521 15.70915721 82368
Epoch: Jul 12, 2026 • Age: 14 hours

現在のステータス

高度 359.7 km
遠地点 / 近地点 N/A
速度 7.70 km/s
衛星直下点 39.14°N, 157.36°E
打ち上げ日 Feb 11, 2025
運用期間 1.4 years
タイプ internet

技術仕様

分類 Payload
質量 960.00 kg
乾燥質量 910.00 kg
総質量 960.00 kg
長さ 0.30 m
直径 4.10 m
スパン 29.00 m
形状 Box + pan
製造者 SPXS
バスタイプ Starlink V2MD
フェーズステータス In Orbit
所有者/国 SPXS/US

Most Searched